Location: Anuling
(14.1239°N, 120.8922°E)
Time: 12:29:12
(UTC+00:00)

Cosmos 2218 Rocket - Pass Details

Date: 13 April 2026
Orbit: 955 x 1005 km, 82.9° (Epoch: 11 May)

Event Time Altitude Azimuth Distance (km) Brightness Sun altitude
Exits shadow 12:13:20 33° 21° (NNE) 1,542 5.0 -29.9°
Drops below altitude 10° 12:16:36 10° 11° (NNE) 2,680 6.4 -30.6°
Sets 12:19:06 0° 9° (N) 3,625 7.1 -31.2°
